GW1479 Weather Reports


Display with metric or nautical units.
time (UTC)temp
F
wind
direction
speed
MPH
gust
MPH
rain 1hr
in
rain 24hr
in
rain mn
in
humidity
%
barometer
mb
20260503184216 60 293 5.0 6.0 0.00 0.00 0.00 42 1016.5
20260503183031 59 270 5.0 12.0 0.00 0.00 0.00 43 1016.5
20260503182446 60 270 8.0 13.0 0.00 0.00 0.00 42 1016.5
20260503181853 59 225 7.0 7.0 0.00 0.00 0.00 45 1016.5
20260503181236 59 248 5.0 11.0 0.00 0.00 0.00 43 1016.9
20260503180651 59 270 7.0 9.0 0.00 0.00 0.00 45 1016.9
20260503180026 59 293 5.0 7.0 0.00 0.00 0.00 46 1016.9
20260503175417 57 270 10.0 12.0 0.00 0.00 0.00 44 1016.9
20260503174820 58 23 4.0 8.0 0.00 0.00 0.00 44 1016.9
20260503174213 58 270 8.0 10.0 0.00 0.00 0.00 46 1017.2
20260503173627 56 270 10.0 13.0 0.00 0.00 0.00 47 1017.2
20260503173035 58 293 3.0 10.0 0.00 0.00 0.00 47 1017.2
20260503172413 58 248 5.0 8.0 0.00 0.00 0.00 45 1017.6
20260503171814 58 270 10.0 13.0 0.00 0.00 0.00 47 1017.2
20260503171254 57 248 6.0 13.0 0.00 0.00 0.00 49 1017.2
20260503150630 50 270 4.0 16.0 0.00 0.00 0.00 61 1018.9
20260503130620 46 203 2.0 7.0 0.00 0.00 0.00 79 1018.9
20260503110645 34 338 0.0 0.0 0.00 0.00 0.00 99 1018.2
20260503081246 35 270 0.0 0.0 0.00 0.00 0.00 96 1016.9
20260503072410 37 203 0.0 0.0 0.00 0.00 0.00 96 1016.2
20260503071838 38 225 0.0 0.0 0.00 0.00 0.00 96 1016.2
20260503071227 38 203 0.0 0.0 0.00 0.00 0.00 96 1016.2
20260503070623 38 180 0.0 0.0 0.00 0.00 0.00 96 1016.2
20260503054237 41 248 2.0 3.0 0.00 0.00 0.00 96 1016.2
20260503053623 40 248 3.0 3.0 0.00 0.00 0.00 96 1016.2
20260503053051 41 270 2.0 2.0 0.00 0.00 0.00 96 1016.2
20260503052424 41 270 2.0 2.0 0.00 0.00 0.00 95 1016.2
20260503051854 41 248 2.0 2.0 0.00 0.00 0.00 95 1016.2
20260503051244 40 248 2.0 3.0 0.00 0.00 0.00 96 1016.2
20260503050649 40 270 3.0 3.0 0.00 0.00 0.00 97 1016.2
20260503050053 41 248 2.0 3.0 0.00 0.00 0.00 96 1016.2
20260503045418 40 248 3.0 3.0 0.00 0.00 0.00 96 1016.2
20260503044845 40 248 3.0 3.0 0.00 0.00 0.00 96 1016.5
20260503044242 41 248 2.0 2.0 0.00 0.00 0.00 94 1016.5
20260503043639 41 248 0.0 0.0 0.00 0.00 0.00 91 1016.2
20260503043016 42 158 0.0 0.0 0.00 0.00 0.00 92 1016.2
20260503042443 42 158 0.0 0.0 0.00 0.00 0.00 91 1016.2
20260503041823 42 270 0.0 0.0 0.00 0.00 0.00 91 1016.2
20260503040623 41 248 2.0 2.0 0.00 0.00 0.00 92 1016.5
20260503040047 41 248 2.0 3.0 0.00 0.00 0.00 92 1016.5
20260503035451 41 270 2.0 3.0 0.00 0.00 0.00 93 1016.5
20260503034851 42 270 2.0 2.0 0.00 0.00 0.00 93 1016.5
20260503034216 41 270 2.0 2.0 0.00 0.00 0.00 92 1016.2
20260503033638 41 270 1.0 2.0 0.00 0.00 0.00 92 1016.2
20260503032419 41 248 2.0 2.0 0.00 0.00 0.00 92 1016.2
20260503031839 42 248 2.0 2.0 0.00 0.00 0.00 91 1016.5
20260503031244 42 225 0.0 0.0 0.00 0.00 0.00 88 1016.2
20260503030642 42 225 0.0 2.0 0.00 0.00 0.00 89 1016.2
20260503030024 42 248 0.0 2.0 0.00 0.00 0.00 87 1016.2
20260503025424 42 270 0.0 0.0 0.00 0.00 0.00 86 1016.2
20260503024829 43 270 2.0 2.0 0.00 0.00 0.00 86 1016.5
20260503024233 43 270 0.0 2.0 0.00 0.00 0.00 85 1016.2
20260503023618 43 225 0.0 2.0 0.00 0.00 0.00 83 1016.2
20260503023036 43 113 0.0 2.0 0.00 0.00 0.00 83 1016.2
20260503022451 44 270 0.0 0.0 0.00 0.00 0.00 80 1016.2
20260503021851 45 158 0.0 0.0 0.00 0.00 0.00 78 1016.2
20260503021241 45 248 0.0 0.0 0.00 0.00 0.00 79 1016.2
20260503020644 45 90 2.0 2.0 0.00 0.00 0.00 77 1016.2
20260503020048 45 135 0.0 0.0 0.00 0.00 0.00 75 1016.2
20260503014817 45 270 3.0 3.0 0.00 0.00 0.00 76 1016.2
20260503014252 46 180 0.0 2.0 0.00 0.00 0.00 75 1015.9
20260503013626 46 225 2.0 2.0 0.00 0.00 0.00 76 1015.9
20260503013014 46 203 2.0 2.0 0.00 0.00 0.00 75 1015.9
20260503011811 46 113 2.0 2.0 0.00 0.00 0.00 71 1015.5
20260503011231 47 23 0.0 0.0 0.00 0.00 0.00 69 1015.5
20260503010623 47 270 1.0 2.0 0.00 0.00 0.00 69 1015.5
20260503010028 47 270 3.0 3.0 0.00 0.00 0.00 69 1015.5
20260503005413 47 158 4.0 5.0 0.00 0.00 0.00 68 1015.2
20260503004843 48 248 0.0 0.0 0.00 0.00 0.00 69 1015.2
20260503004211 48 203 1.0 2.0 0.00 0.00 0.00 69 1015.2
20260503003641 48 180 0.0 2.0 0.00 0.00 0.00 68 1015.2
20260503003018 49 90 0.0 0.0 0.00 0.00 0.00 65 1015.2
20260503001815 49 248 0.0 0.0 0.00 0.00 0.00 64 1015.2
20260503001232 49 270 2.0 3.0 0.00 0.00 0.00 64 1014.9
20260503000048 50 203 2.0 4.0 0.00 0.00 0.00 61 1014.5
20260502235410 50 270 3.0 4.0 0.00 0.00 0.00 60 1014.5
20260502234841 50 270 2.0 6.0 0.00 0.00 0.00 59 1014.5
20260502234245 51 225 5.0 6.0 0.00 0.00 0.00 58 1014.5
20260502233641 51 270 5.0 8.0 0.00 0.00 0.00 57 1014.5
20260502232429 51 203 2.0 6.0 0.00 0.00 0.00 56 1014.2
20260502231840 53 270 4.0 7.0 0.00 0.00 0.00 54 1014.2
20260502231212 52 225 2.0 8.0 0.00 0.00 0.00 55 1014.2
20260502230630 52 158 6.0 6.0 0.00 0.00 0.00 55 1013.8
20260502230040 52 248 6.0 8.0 0.00 0.00 0.00 54 1013.8
20260502225434 53 225 5.0 5.0 0.00 0.00 0.00 54 1013.8
20260502224832 53 248 3.0 4.0 0.00 0.00 0.00 56 1013.8
20260502224226 52 248 5.0 5.0 0.00 0.00 0.00 56 1013.8
20260502223035 53 270 5.0 12.0 0.00 0.00 0.00 52 1013.8
20260502222421 53 270 5.0 10.0 0.00 0.00 0.00 51 1013.8
20260502221839 53 225 2.0 7.0 0.00 0.00 0.00 52 1013.8
20260502221254 54 270 5.0 7.0 0.00 0.00 0.00 51 1013.5
20260502220621 53 270 7.0 8.0 0.00 0.00 0.00 50 1013.5
20260502220030 54 225 4.0 8.0 0.00 0.00 0.00 50 1013.5
20260502215411 54 293 6.0 9.0 0.00 0.00 0.00 50 1013.2
20260502214823 54 248 8.0 8.0 0.00 0.00 0.00 49 1013.2
20260502213651 53 248 3.0 9.0 0.00 0.00 0.00 50 1013.2
20260502213041 53 248 4.0 5.0 0.00 0.00 0.00 51 1013.2
20260502212448 53 248 6.0 6.0 0.00 0.00 0.00 51 1013.2
20260502211814 53 225 6.0 9.0 0.00 0.00 0.00 51 1013.2
20260502211238 53 203 4.0 9.0 0.00 0.00 0.00 49 1013.2
20260502210627 54 225 4.0 6.0 0.00 0.00 0.00 49 1013.2
20260502210034 54 270 8.0 8.0 0.00 0.00 0.00 49 1013.2
20260502205414 54 248 6.0 6.0 0.00 0.00 0.00 50 1013.2
20260502204235 53 270 7.0 15.0 0.00 0.00 0.00 49 1013.5
20260502203612 54 225 9.0 13.0 0.00 0.00 0.00 48 1013.5
20260502203052 54 270 6.0 9.0 0.00 0.00 0.00 49 1013.5
20260502202443 55 248 5.0 5.0 0.00 0.00 0.00 50 1013.5
20260502201845 53 270 3.0 3.0 0.00 0.00 0.00 51 1013.5
20260502201211 54 203 7.0 9.0 0.00 0.00 0.00 51 1013.8
20260502200650 54 270 10.0 10.0 0.00 0.00 0.00 50 1013.5
20260502200039 54 270 5.0 9.0 0.00 0.00 0.00 52 1013.5
20260502195414 54 248 4.0 5.0 0.00 0.00 0.00 50 1013.8
20260502194838 54 270 5.0 9.0 0.00 0.00 0.00 50 1013.8
20260502194248 55 203 4.0 11.0 0.00 0.00 0.00 51 1013.8
20260502193634 56 248 5.0 7.0 0.00 0.00 0.00 52 1013.8
20260502193038 56 270 16.0 16.0 0.00 0.00 0.00 49 1013.8
20260502192426 55 248 5.0 5.0 0.00 0.00 0.00 53 1013.8
20260502191852 54 225 7.0 7.0 0.00 0.00 0.00 50 1013.8
20260502190615 54 180 5.0 12.0 0.00 0.00 0.00 50 1013.8
20260502190018 54 203 5.0 9.0 0.00 0.00 0.00 49 1013.8
20260502185437 55 270 5.0 7.0 0.00 0.00 0.00 48 1014.2